Location: Carrières
(48.9495°N, 2.0407°E)
Time: 18:47:58
(UTC+00:00)

Altair - Pass Details

Date: 24 April 2024
Orbit: 1502 x 1682 km, 47.2° (Epoch: 21 May)

Event Time Altitude Azimuth Distance (km) Brightness Sun altitude
Rises 19:51:39 0° 260° (W) 4,918 11.0 -8.7°
Reaches altitude 10° 19:54:50 10° 260° (W) 3,918 10.4 -9.1°
Maximum altitude 20:04:53 81° 175° (S) 1,648 7.6 -10.5°
Drops below altitude 10° 20:14:35 10° 90° (E) 3,788 9.1 -11.8°
Enters shadow 20:16:11 - 90° (E) 4,290 9.4 -12.0°
